Time,TemperatureF,DewpointF,PressureIn,WindDirection,WindDirectionDegrees,WindSpeedMPH,WindSpeedGustMPH,Humidity,HourlyPrecipIn,Conditions,Clouds,dailyrainin,SolarRadiationWatts/m^2,SoftwareType,DateUTC
2013-03-03 00:18:00,28.3,18.1,29.94,North,7,2.0,3.0,65,0.00,,CLR,0.00,0.00,VWS V14.01,2013-03-03 05:18:00,
2013-03-03 00:23:00,28.3,18.1,29.93,North,0,1.0,6.0,65,0.00,,CLR,0.00,0.00,VWS V14.01,2013-03-03 05:23:00,
2013-03-03 00:28:00,28.3,17.7,29.93,NNW,344,0.0,7.0,64,0.00,,CLR,0.00,0.00,VWS V14.01,2013-03-03 05:28:00,
2013-03-03 00:33:00,28.1,17.9,29.93,NE,51,0.0,7.0,65,0.00,,CLR,0.00,0.00,VWS V14.01,2013-03-03 05:33:00,
2013-03-03 00:38:00,28.1,17.5,29.93,North,0,0.0,5.0,64,0.00,,CLR,0.00,0.00,VWS V14.01,2013-03-03 05:38:00,
2013-03-03 00:43:00,28.1,17.5,29.93,North,0,0.0,5.0,64,0.00,,CLR,0.00,0.00,VWS V14.01,2013-03-03 05:43:00,
2013-03-03 00:48:00,28.0,17.0,29.93,North,352,4.0,4.0,63,0.00,,CLR,0.00,0.00,VWS V14.01,2013-03-03 05:48:00,
2013-03-03 00:53:00,28.1,17.1,29.92,NNW,333,4.0,11.0,63,0.00,,CLR,0.00,0.00,VWS V14.01,2013-03-03 05:53:00,
2013-03-03 00:59:00,28.3,16.6,29.92,NNW,342,2.0,6.0,61,0.00,,CLR,0.00,0.00,VWS V14.01,2013-03-03 05:59:00,
2013-03-03 01:04:00,28.3,17.0,29.92,NNW,344,2.0,6.0,62,0.00,,CLR,0.00,0.00,VWS V14.01,2013-03-03 06:04:00,
2013-03-03 01:09:00,28.4,17.1,29.92,NNW,329,1.0,6.0,62,0.00,,CLR,0.00,0.00,VWS V14.01,2013-03-03 06:09:00,
2013-03-03 01:14:00,28.3,17.0,29.92,NNW,329,0.0,6.0,62,0.00,,CLR,0.00,0.00,VWS V14.01,2013-03-03 06:14:00,
2013-03-03 01:19:00,28.3,17.3,29.92,NNW,330,3.0,3.0,63,0.00,,CLR,0.00,0.00,VWS V14.01,2013-03-03 06:19:00,
2013-03-03 01:24:00,28.3,17.3,29.92,NNW,340,5.0,5.0,63,0.00,,CLR,0.00,0.00,VWS V14.01,2013-03-03 06:24:00,
2013-03-03 01:29:00,28.3,17.3,29.92,North,352,1.0,5.0,63,0.00,,CLR,0.00,0.00,VWS V14.01,2013-03-03 06:29:00,
2013-03-03 01:34:00,28.3,17.3,29.92,NNW,339,2.0,5.0,63,0.00,,CLR,0.00,0.00,VWS V14.01,2013-03-03 06:34:00,
2013-03-03 01:39:00,28.3,17.3,29.92,NNW,344,1.0,5.0,63,0.00,,CLR,0.00,0.00,VWS V14.01,2013-03-03 06:39:00,
2013-03-03 01:44:00,28.4,16.7,29.92,NNW,330,3.0,6.0,61,0.00,,CLR,0.00,0.00,VWS V14.01,2013-03-03 06:44:00,
2013-03-03 01:49:00,28.4,16.7,29.92,NNE,21,1.0,6.0,61,0.00,,CLR,0.00,0.00,VWS V14.01,2013-03-03 06:49:00,
2013-03-03 01:54:00,28.5,16.8,29.92,North,357,2.0,6.0,61,0.00,,CLR,0.00,0.00,VWS V14.01,2013-03-03 06:54:00,
2013-03-03 02:00:00,28.5,16.0,29.92,North,0,5.0,7.0,59,0.00,,CLR,0.00,0.00,VWS V14.01,2013-03-03 07:00:00,
2013-03-03 02:05:00,28.5,15.6,29.92,NNE,17,2.0,7.0,58,0.00,,CLR,0.00,0.00,VWS V14.01,2013-03-03 07:05:00,
2013-03-03 02:10:00,28.5,16.0,29.92,NNW,342,1.0,5.0,59,0.00,,CLR,0.00,0.00,VWS V14.01,2013-03-03 07:10:00,
2013-03-03 02:15:00,28.5,16.0,29.92,NNE,25,3.0,5.0,59,0.00,,CLR,0.00,0.00,VWS V14.01,2013-03-03 07:15:00,
2013-03-03 02:20:00,28.5,16.0,29.92,North,0,3.0,6.0,59,0.00,,CLR,0.00,0.00,VWS V14.01,2013-03-03 07:20:00,
2013-03-03 02:25:00,28.4,15.9,29.92,NE,42,3.0,8.0,59,0.00,,CLR,0.00,0.00,VWS V14.01,2013-03-03 07:25:00,
2013-03-03 02:30:00,28.4,15.9,29.92,North,11,0.0,2.0,59,0.00,,CLR,0.00,0.00,VWS V14.01,2013-03-03 07:30:00,
2013-03-03 02:35:00,28.4,15.9,29.91,North,11,0.0,2.0,59,0.00,,CLR,0.00,0.00,VWS V14.01,2013-03-03 07:35:00,
2013-03-03 02:40:00,28.4,16.3,29.91,North,11,0.0,0.0,60,0.00,,CLR,0.00,0.00,VWS V14.01,2013-03-03 07:40:00,
2013-03-03 02:45:00,28.3,16.2,29.91,North,11,0.0,0.0,60,0.00,,CLR,0.00,0.00,VWS V14.01,2013-03-03 07:45:00,
2013-03-03 02:50:00,28.3,16.2,29.91,North,11,0.0,0.0,60,0.00,,CLR,0.00,0.00,VWS V14.01,2013-03-03 07:50:00,
2013-03-03 02:55:00,28.1,16.0,29.91,WNW,291,3.0,3.0,60,0.00,,CLR,0.00,0.00,VWS V14.01,2013-03-03 07:55:00,
2013-03-03 03:00:00,28.1,16.0,29.91,NW,312,0.0,5.0,60,0.00,,CLR,0.00,0.00,VWS V14.01,2013-03-03 08:00:00,
2013-03-03 03:06:00,28.1,16.0,29.90,NW,312,1.0,1.0,60,0.00,,CLR,0.00,0.00,VWS V14.01,2013-03-03 08:06:00,
2013-03-03 03:11:00,28.1,16.0,29.90,NW,312,0.0,1.0,60,0.00,,CLR,0.00,0.00,VWS V14.01,2013-03-03 08:11:00,
2013-03-03 03:16:00,28.1,15.6,29.90,West,275,0.0,0.0,59,0.00,,CLR,0.00,0.00,VWS V14.01,2013-03-03 08:16:00,
2013-03-03 03:21:00,28.1,16.0,29.90,West,275,0.0,0.0,60,0.00,,CLR,0.00,0.00,VWS V14.01,2013-03-03 08:21:00,
2013-03-03 03:26:00,28.0,16.3,29.90,West,275,0.0,0.0,61,0.00,,CLR,0.00,0.00,VWS V14.01,2013-03-03 08:26:00,
2013-03-03 03:31:00,28.0,16.3,29.90,WNW,287,0.0,0.0,61,0.00,,CLR,0.00,0.00,VWS V14.01,2013-03-03 08:31:00,
2013-03-03 03:36:00,28.0,16.3,29.90,NE,35,1.0,2.0,61,0.00,,CLR,0.00,0.00,VWS V14.01,2013-03-03 08:36:00,
2013-03-03 03:41:00,28.1,16.0,29.90,NNE,28,1.0,6.0,60,0.00,,CLR,0.00,0.00,VWS V14.01,2013-03-03 08:41:00,
2013-03-03 03:46:00,28.1,16.4,29.90,North,11,1.0,2.0,61,0.00,,CLR,0.00,0.00,VWS V14.01,2013-03-03 08:46:00,
2013-03-03 03:51:00,28.1,16.0,29.90,ENE,68,3.0,5.0,60,0.00,,CLR,0.00,0.00,VWS V14.01,2013-03-03 08:51:00,
2013-03-03 03:56:00,28.1,16.4,29.90,NE,42,1.0,1.0,61,0.00,,CLR,0.00,0.00,VWS V14.01,2013-03-03 08:56:00,
2013-03-03 04:01:00,28.1,16.4,29.90,NNE,31,0.0,5.0,61,0.00,,CLR,0.00,0.00,VWS V14.01,2013-03-03 09:01:00,
2013-03-03 04:07:00,28.1,16.4,29.90,NNW,328,0.0,0.0,61,0.00,,CLR,0.00,0.00,VWS V14.01,2013-03-03 09:07:00,
2013-03-03 04:12:00,28.1,16.0,29.90,NE,49,0.0,5.0,60,0.00,,CLR,0.00,0.00,VWS V14.01,2013-03-03 09:12:00,
2013-03-03 04:17:00,28.1,16.0,29.90,NE,52,2.0,3.0,60,0.00,,CLR,0.00,0.00,VWS V14.01,2013-03-03 09:17:00,
2013-03-03 04:22:00,28.1,16.8,29.91,East,83,0.0,3.0,62,0.00,,CLR,0.00,0.00,VWS V14.01,2013-03-03 09:22:00,
2013-03-03 04:27:00,28.1,16.8,29.91,East,82,0.0,0.0,62,0.00,,CLR,0.00,0.00,VWS V14.01,2013-03-03 09:27:00,
2013-03-03 04:32:00,28.1,16.8,29.91,East,82,0.0,2.0,62,0.00,,CLR,0.00,0.00,VWS V14.01,2013-03-03 09:32:00,
2013-03-03 04:37:00,28.1,16.8,29.91,East,79,5.0,6.0,62,0.00,,CLR,0.00,0.00,VWS V14.01,2013-03-03 09:37:00,
2013-03-03 04:42:00,28.0,16.7,29.91,East,88,1.0,6.0,62,0.00,,CLR,0.00,0.00,VWS V14.01,2013-03-03 09:42:00,
2013-03-03 04:48:00,28.0,16.7,29.91,ENE,69,3.0,6.0,62,0.00,,CLR,0.00,0.00,VWS V14.01,2013-03-03 09:48:00,
2013-03-03 04:53:00,28.0,17.0,29.91,ENE,78,1.0,6.0,63,0.00,,CLR,0.00,0.00,VWS V14.01,2013-03-03 09:53:00,
2013-03-03 04:58:00,28.0,16.7,29.91,ESE,117,3.0,6.0,62,0.00,,CLR,0.00,0.00,VWS V14.01,2013-03-03 09:58:00,
2013-03-03 05:03:00,28.1,16.8,29.91,NNE,20,2.0,6.0,62,0.00,,CLR,0.00,0.00,VWS V14.01,2013-03-03 10:03:00,
2013-03-03 05:08:00,28.1,16.8,29.91,North,6,3.0,6.0,62,0.00,,CLR,0.00,0.00,VWS V14.01,2013-03-03 10:08:00,
2013-03-03 05:13:00,28.1,16.4,29.91,ENE,64,2.0,6.0,61,0.00,,CLR,0.00,0.00,VWS V14.01,2013-03-03 10:13:00,
2013-03-03 05:18:00,28.1,16.4,29.91,NE,47,4.0,5.0,61,0.00,,CLR,0.00,0.00,VWS V14.01,2013-03-03 10:18:00,
2013-03-03 05:23:00,28.1,16.8,29.92,ENE,66,6.0,6.0,62,0.00,,CLR,0.00,0.00,VWS V14.01,2013-03-03 10:23:00,
2013-03-03 05:28:00,28.1,16.0,29.92,East,90,0.0,7.0,60,0.00,,CLR,0.00,0.00,VWS V14.01,2013-03-03 10:28:00,
2013-03-03 05:34:00,28.1,16.4,29.92,East,90,0.0,7.0,61,0.00,,CLR,0.00,0.00,VWS V14.01,2013-03-03 10:34:00,
2013-03-03 05:39:00,28.1,16.4,29.91,NE,55,5.0,5.0,61,0.00,,CLR,0.00,0.00,VWS V14.01,2013-03-03 10:39:00,
2013-03-03 05:44:00,28.1,16.4,29.91,NE,51,5.0,8.0,61,0.00,,CLR,0.00,0.00,VWS V14.01,2013-03-03 10:44:00,
2013-03-03 05:49:00,28.1,16.0,29.91,NNE,27,0.0,5.0,60,0.00,,CLR,0.00,0.00,VWS V14.01,2013-03-03 10:49:00,
2013-03-03 05:54:00,28.3,16.2,29.92,North,0,1.0,7.0,60,0.00,,CLR,0.00,0.00,VWS V14.01,2013-03-03 10:54:00,
2013-03-03 05:59:00,28.3,16.2,29.92,NNE,18,5.0,7.0,60,0.00,,CLR,0.00,0.00,VWS V14.01,2013-03-03 10:59:00,
2013-03-03 06:04:00,28.1,16.4,29.92,NNE,31,7.0,13.0,61,0.00,,CLR,0.00,0.00,VWS V14.01,2013-03-03 11:04:00,
2013-03-03 06:09:00,28.1,16.0,29.92,ENE,58,3.0,7.0,60,0.00,,CLR,0.00,0.00,VWS V14.01,2013-03-03 11:09:00,
2013-03-03 06:14:00,28.1,16.4,29.92,NE,44,4.0,7.0,61,0.00,,CLR,0.00,0.00,VWS V14.01,2013-03-03 11:14:00,
2013-03-03 06:19:00,28.0,16.3,29.92,NE,41,3.0,5.0,61,0.00,,CLR,0.00,0.00,VWS V14.01,2013-03-03 11:19:00,
2013-03-03 06:25:00,28.0,16.7,29.92,NNE,20,2.0,6.0,62,0.00,,CLR,0.00,0.00,VWS V14.01,2013-03-03 11:25:00,
2013-03-03 06:30:00,28.0,16.3,29.92,North,353,3.0,9.0,61,0.00,,CLR,0.00,0.00,VWS V14.01,2013-03-03 11:30:00,
2013-03-03 06:35:00,28.0,16.7,29.92,North,6,5.0,9.0,62,0.00,,CLR,0.00,0.00,VWS V14.01,2013-03-03 11:35:00,
2013-03-03 06:40:00,28.0,16.3,29.92,North,4,3.0,6.0,61,0.00,,CLR,0.00,0.00,VWS V14.01,2013-03-03 11:40:00,
2013-03-03 06:45:00,28.0,16.7,29.92,NE,41,2.0,8.0,62,0.00,,CLR,0.00,0.00,VWS V14.01,2013-03-03 11:45:00,
2013-03-03 06:50:00,28.0,16.7,29.92,NNE,23,3.0,7.0,62,0.00,,CLR,0.00,5.00,VWS V14.01,2013-03-03 11:50:00,
2013-03-03 06:55:00,28.0,16.7,29.92,NNE,14,2.0,7.0,62,0.00,,CLR,0.00,7.00,VWS V14.01,2013-03-03 11:55:00,
2013-03-03 07:00:00,28.0,16.3,29.92,NE,34,2.0,8.0,61,0.00,,CLR,0.00,7.00,VWS V14.01,2013-03-03 12:00:00,
2013-03-03 07:05:00,28.0,16.7,29.92,NNE,14,2.0,8.0,62,0.00,,CLR,0.00,7.00,VWS V14.01,2013-03-03 12:05:00,
2013-03-03 07:10:00,28.0,16.7,29.92,NE,37,3.0,6.0,62,0.00,,CLR,0.00,9.00,VWS V14.01,2013-03-03 12:10:00,
2013-03-03 07:16:00,27.8,16.5,29.92,NNE,20,2.0,2.0,62,0.00,,CLR,0.00,11.00,VWS V14.01,2013-03-03 12:16:00,
2013-03-03 07:21:00,27.8,16.5,29.92,North,8,3.0,7.0,62,0.00,,CLR,0.00,12.00,VWS V14.01,2013-03-03 12:21:00,
2013-03-03 07:26:00,27.8,16.1,29.92,NE,42,7.0,7.0,61,0.00,,CLR,0.00,14.00,VWS V14.01,2013-03-03 12:26:00,
2013-03-03 07:31:00,27.8,15.7,29.92,ENE,58,8.0,12.0,60,0.00,,CLR,0.00,18.00,VWS V14.01,2013-03-03 12:31:00,
2013-03-03 07:36:00,27.8,15.7,29.93,NNE,23,3.0,6.0,60,0.00,,CLR,0.00,28.00,VWS V14.01,2013-03-03 12:36:00,
2013-03-03 07:41:00,27.8,15.4,29.93,North,4,5.0,10.0,59,0.00,,CLR,0.00,33.00,VWS V14.01,2013-03-03 12:41:00,
2013-03-03 07:46:00,28.0,15.5,29.93,NNE,25,9.0,9.0,59,0.00,,CLR,0.00,42.00,VWS V14.01,2013-03-03 12:46:00,
2013-03-03 07:51:00,28.0,15.5,29.93,North,0,8.0,12.0,59,0.00,,CLR,0.00,51.00,VWS V14.01,2013-03-03 12:51:00,
2013-03-03 07:56:00,28.1,15.6,29.93,North,1,6.0,6.0,59,0.00,,CLR,0.00,48.00,VWS V14.01,2013-03-03 12:56:00,
2013-03-03 08:01:00,28.1,15.6,29.93,NE,45,6.0,9.0,59,0.00,,CLR,0.00,62.00,VWS V14.01,2013-03-03 13:01:00,
2013-03-03 08:06:00,28.3,15.8,29.94,NNE,30,5.0,7.0,59,0.00,,CLR,0.00,88.00,VWS V14.01,2013-03-03 13:06:00,
2013-03-03 08:11:00,28.4,15.9,29.94,North,4,5.0,10.0,59,0.00,,CLR,0.00,95.00,VWS V14.01,2013-03-03 13:11:00,
2013-03-03 08:17:00,28.5,15.6,29.94,North,7,2.0,4.0,58,0.00,,CLR,0.00,81.00,VWS V14.01,2013-03-03 13:17:00,
2013-03-03 08:22:00,28.5,15.6,29.94,NNE,30,5.0,8.0,58,0.00,,CLR,0.00,99.00,VWS V14.01,2013-03-03 13:22:00,
2013-03-03 08:27:00,28.7,15.8,29.94,NE,55,6.0,9.0,58,0.00,,CLR,0.00,107.00,VWS V14.01,2013-03-03 13:27:00,
2013-03-03 08:32:00,28.7,15.8,29.94,ENE,72,3.0,11.0,58,0.00,,CLR,0.00,97.00,VWS V14.01,2013-03-03 13:32:00,
2013-03-03 08:37:00,28.8,15.5,29.94,NNE,17,7.0,11.0,57,0.00,,CLR,0.00,121.00,VWS V14.01,2013-03-03 13:37:00,
2013-03-03 08:42:00,28.8,15.5,29.94,North,1,6.0,11.0,57,0.00,,CLR,0.00,100.00,VWS V14.01,2013-03-03 13:42:00,
2013-03-03 08:47:00,28.8,15.9,29.94,NNE,31,9.0,10.0,58,0.00,,CLR,0.00,121.00,VWS V14.01,2013-03-03 13:47:00,
2013-03-03 08:52:00,28.7,14.6,29.94,NNE,23,10.0,14.0,55,0.00,,CLR,0.00,93.00,VWS V14.01,2013-03-03 13:52:00,
2013-03-03 08:57:00,28.5,14.0,29.94,NNE,16,12.0,17.0,54,0.00,,CLR,0.00,285.00,VWS V14.01,2013-03-03 13:57:00,
2013-03-03 09:03:00,28.8,14.7,29.94,NE,42,4.0,17.0,55,0.00,,CLR,0.00,359.00,VWS V14.01,2013-03-03 14:03:00,
2013-03-03 09:08:00,29.1,14.1,29.95,NNE,32,5.0,13.0,53,0.00,,CLR,0.00,188.00,VWS V14.01,2013-03-03 14:08:00,
2013-03-03 09:13:00,29.0,14.0,29.95,NNE,24,8.0,16.0,53,0.00,,CLR,0.00,179.00,VWS V14.01,2013-03-03 14:13:00,
2013-03-03 09:18:00,28.8,14.3,29.95,NNE,14,11.0,12.0,54,0.00,,CLR,0.00,165.00,VWS V14.01,2013-03-03 14:18:00,
2013-03-03 09:23:00,28.8,14.7,29.95,NE,35,7.0,14.0,55,0.00,,CLR,0.00,162.00,VWS V14.01,2013-03-03 14:23:00,
2013-03-03 09:28:00,28.8,14.7,29.95,NNE,31,9.0,10.0,55,0.00,,CLR,0.00,155.00,VWS V14.01,2013-03-03 14:28:00,
2013-03-03 09:33:00,28.8,15.1,29.95,North,6,5.0,10.0,56,0.00,,CLR,0.00,172.00,VWS V14.01,2013-03-03 14:33:00,
2013-03-03 09:38:00,29.1,15.4,29.94,NNE,27,5.0,7.0,56,0.00,,CLR,0.00,181.00,VWS V14.01,2013-03-03 14:38:00,
2013-03-03 09:43:00,29.1,15.0,29.94,North,11,7.0,14.0,55,0.00,,CLR,0.00,178.00,VWS V14.01,2013-03-03 14:43:00,
2013-03-03 09:48:00,29.0,14.9,29.94,NE,38,2.0,14.0,55,0.00,,CLR,0.00,190.00,VWS V14.01,2013-03-03 14:48:00,
2013-03-03 09:53:00,28.8,14.7,29.94,NE,40,5.0,15.0,55,0.00,,CLR,0.00,218.00,VWS V14.01,2013-03-03 14:53:00,
2013-03-03 09:58:00,29.1,15.8,29.94,NNE,23,6.0,11.0,57,0.00,,CLR,0.00,229.00,VWS V14.01,2013-03-03 14:58:00,
2013-03-03 10:03:00,29.1,15.8,29.94,NNE,31,7.0,13.0,57,0.00,,CLR,0.00,246.00,VWS V14.01,2013-03-03 15:03:00,
2013-03-03 10:08:00,29.3,15.1,29.94,NE,40,8.0,11.0,55,0.00,,CLR,0.00,232.00,VWS V14.01,2013-03-03 15:08:00,
2013-03-03 10:14:00,29.6,15.4,29.94,NNE,17,7.0,13.0,55,0.00,,CLR,0.00,248.00,VWS V14.01,2013-03-03 15:14:00,
2013-03-03 10:19:00,29.6,14.6,29.94,NNE,20,6.0,13.0,53,0.00,,CLR,0.00,239.00,VWS V14.01,2013-03-03 15:19:00,
2013-03-03 10:24:00,29.6,14.6,29.94,North,4,9.0,13.0,53,0.00,,CLR,0.00,213.00,VWS V14.01,2013-03-03 15:24:00,
2013-03-03 10:29:00,29.6,14.6,29.94,ENE,62,8.0,14.0,53,0.00,,CLR,0.00,230.00,VWS V14.01,2013-03-03 15:29:00,
2013-03-03 10:34:00,29.7,14.7,29.94,NNE,21,5.0,14.0,53,0.00,,CLR,0.00,236.00,VWS V14.01,2013-03-03 15:34:00,
2013-03-03 10:39:00,29.9,14.4,29.94,North,0,6.0,10.0,52,0.00,,CLR,0.00,290.00,VWS V14.01,2013-03-03 15:39:00,
2013-03-03 10:44:00,30.0,14.5,29.94,NE,35,7.0,11.0,52,0.00,,CLR,0.00,294.00,VWS V14.01,2013-03-03 15:44:00,
2013-03-03 10:49:00,30.2,14.7,29.94,North,349,6.0,13.0,52,0.00,,CLR,0.00,273.00,VWS V14.01,2013-03-03 15:49:00,
2013-03-03 10:54:00,30.3,14.4,29.94,North,7,11.0,16.0,51,0.00,,CLR,0.00,352.00,VWS V14.01,2013-03-03 15:54:00,
2013-03-03 10:59:00,30.5,14.5,29.94,NNE,14,10.0,13.0,51,0.00,,CLR,0.00,266.00,VWS V14.01,2013-03-03 15:59:00,
2013-03-03 11:05:00,30.6,14.2,29.93,NNE,25,6.0,13.0,50,0.00,,CLR,0.00,327.00,VWS V14.01,2013-03-03 16:05:00,
2013-03-03 11:10:00,30.8,14.4,29.93,North,7,10.0,17.0,50,0.00,,CLR,0.00,324.00,VWS V14.01,2013-03-03 16:10:00,
2013-03-03 11:15:00,31.2,15.6,29.93,NNE,20,8.0,17.0,52,0.00,,CLR,0.00,294.00,VWS V14.01,2013-03-03 16:15:00,
2013-03-03 11:20:00,31.2,14.3,29.94,North,0,5.0,12.0,49,0.00,,CLR,0.00,274.00,VWS V14.01,2013-03-03 16:20:00,
2013-03-03 11:25:00,31.2,15.2,29.94,North,0,5.0,12.0,51,0.00,,CLR,0.00,239.00,VWS V14.01,2013-03-03 16:25:00,
2013-03-03 11:30:00,31.1,14.6,29.94,North,357,6.0,16.0,50,0.00,,CLR,0.00,260.00,VWS V14.01,2013-03-03 16:30:00,
2013-03-03 11:35:00,31.1,13.7,29.94,NNE,30,6.0,16.0,48,0.00,,CLR,0.00,225.00,VWS V14.01,2013-03-03 16:35:00,
2013-03-03 11:40:00,30.9,13.5,29.94,NNE,23,5.0,11.0,48,0.00,,CLR,0.00,220.00,VWS V14.01,2013-03-03 16:40:00,
2013-03-03 11:45:00,30.9,13.5,29.94,NE,52,1.0,2.0,48,0.00,,CLR,0.00,204.00,VWS V14.01,2013-03-03 16:45:00,
2013-03-03 11:51:00,31.1,13.7,29.93,NE,47,8.0,10.0,48,0.00,,CLR,0.00,252.00,VWS V14.01,2013-03-03 16:51:00,
2013-03-03 11:56:00,30.9,13.5,29.93,NE,45,3.0,9.0,48,0.00,,CLR,0.00,218.00,VWS V14.01,2013-03-03 16:56:00,
2013-03-03 12:01:00,31.1,13.7,29.93,North,7,4.0,9.0,48,0.00,,CLR,0.00,209.00,VWS V14.01,2013-03-03 17:01:00,
2013-03-03 12:06:00,31.2,13.8,29.93,NNE,13,6.0,7.0,48,0.00,,CLR,0.00,238.00,VWS V14.01,2013-03-03 17:06:00,
2013-03-03 12:11:00,31.4,14.0,29.93,North,356,9.0,12.0,48,0.00,,CLR,0.00,190.00,VWS V14.01,2013-03-03 17:11:00,
2013-03-03 12:16:00,31.4,13.5,29.93,NNE,28,8.0,8.0,47,0.00,,CLR,0.00,239.00,VWS V14.01,2013-03-03 17:16:00,
2013-03-03 12:21:00,31.5,14.1,29.92,North,359,8.0,11.0,48,0.00,,CLR,0.00,236.00,VWS V14.01,2013-03-03 17:21:00,
2013-03-03 12:26:00,31.8,13.9,29.92,North,357,9.0,11.0,47,0.00,,CLR,0.00,188.00,VWS V14.01,2013-03-03 17:26:00,
2013-03-03 12:31:00,31.7,13.3,29.92,North,0,2.0,12.0,46,0.00,,CLR,0.00,208.00,VWS V14.01,2013-03-03 17:31:00,
2013-03-03 12:37:00,31.8,14.4,29.92,North,0,5.0,6.0,48,0.00,,CLR,0.00,201.00,VWS V14.01,2013-03-03 17:37:00,
2013-03-03 12:42:00,31.9,13.5,29.92,North,0,3.0,13.0,46,0.00,,CLR,0.00,230.00,VWS V14.01,2013-03-03 17:42:00,
2013-03-03 12:47:00,31.9,13.5,29.92,NNE,32,9.0,13.0,46,0.00,,CLR,0.00,209.00,VWS V14.01,2013-03-03 17:47:00,
2013-03-03 12:52:00,31.8,13.9,29.92,NNW,342,8.0,13.0,47,0.00,,CLR,0.00,243.00,VWS V14.01,2013-03-03 17:52:00,
2013-03-03 12:57:00,32.1,14.2,29.92,NNE,20,5.0,10.0,47,0.00,,CLR,0.00,230.00,VWS V14.01,2013-03-03 17:57:00,
2013-03-03 13:02:00,32.2,15.2,29.92,North,8,6.0,10.0,49,0.00,,CLR,0.00,213.00,VWS V14.01,2013-03-03 18:02:00,
2013-03-03 13:07:00,32.4,14.4,29.92,North,353,8.0,10.0,47,0.00,,CLR,0.00,213.00,VWS V14.01,2013-03-03 18:07:00,
2013-03-03 13:12:00,32.2,14.7,29.92,NNE,25,6.0,13.0,48,0.00,,CLR,0.00,227.00,VWS V14.01,2013-03-03 18:12:00,
2013-03-03 13:17:00,31.9,14.4,29.92,NE,37,7.0,11.0,48,0.00,,CLR,0.00,218.00,VWS V14.01,2013-03-03 18:17:00,
2013-03-03 13:22:00,32.1,14.6,29.91,North,0,12.0,16.0,48,0.00,,CLR,0.00,218.00,VWS V14.01,2013-03-03 18:22:00,
2013-03-03 13:28:00,31.9,15.4,29.91,North,357,5.0,8.0,50,0.00,,CLR,0.00,239.00,VWS V14.01,2013-03-03 18:28:00,
2013-03-03 13:33:00,32.1,15.1,29.91,North,0,6.0,10.0,49,0.00,,CLR,0.00,241.00,VWS V14.01,2013-03-03 18:33:00,
2013-03-03 13:38:00,31.9,15.4,29.91,North,353,6.0,11.0,50,0.00,,CLR,0.00,248.00,VWS V14.01,2013-03-03 18:38:00,
2013-03-03 13:43:00,32.2,16.1,29.91,NNW,340,8.0,11.0,51,0.00,,CLR,0.00,213.00,VWS V14.01,2013-03-03 18:43:00,
2013-03-03 13:48:00,32.1,15.1,29.91,North,0,5.0,12.0,49,0.00,,CLR,0.00,206.00,VWS V14.01,2013-03-03 18:48:00,
2013-03-03 13:53:00,32.1,15.1,29.91,North,353,7.0,12.0,49,0.00,,CLR,0.00,201.00,VWS V14.01,2013-03-03 18:53:00,
2013-03-03 13:58:00,32.1,15.1,29.91,North,0,3.0,6.0,49,0.00,,CLR,0.00,201.00,VWS V14.01,2013-03-03 18:58:00,
2013-03-03 14:04:00,32.1,15.1,29.91,North,8,12.0,12.0,49,0.00,,CLR,0.00,179.00,VWS V14.01,2013-03-03 19:04:00,
2013-03-03 14:09:00,32.1,14.2,29.91,NNE,14,2.0,7.0,47,0.00,,CLR,0.00,176.00,VWS V14.01,2013-03-03 19:09:00,
2013-03-03 14:14:00,31.7,14.3,29.91,North,3,7.0,7.0,48,0.00,,CLR,0.00,176.00,VWS V14.01,2013-03-03 19:14:00,
2013-03-03 14:19:00,31.8,14.8,29.91,NNE,16,6.0,8.0,49,0.00,,CLR,0.00,148.00,VWS V14.01,2013-03-03 19:19:00,
2013-03-03 14:24:00,31.8,15.3,29.91,North,359,5.0,8.0,50,0.00,,CLR,0.00,151.00,VWS V14.01,2013-03-03 19:24:00,
2013-03-03 14:29:00,31.7,15.2,29.91,North,0,4.0,8.0,50,0.00,,CLR,0.00,137.00,VWS V14.01,2013-03-03 19:29:00,
2013-03-03 14:35:00,31.8,15.8,29.91,North,8,6.0,8.0,51,0.00,,CLR,0.00,143.00,VWS V14.01,2013-03-03 19:35:00,
2013-03-03 14:40:00,31.8,15.8,29.91,North,0,5.0,7.0,51,0.00,,CLR,0.00,132.00,VWS V14.01,2013-03-03 19:40:00,
2013-03-03 14:45:00,31.9,15.8,29.91,North,354,5.0,7.0,51,0.00,,CLR,0.00,125.00,VWS V14.01,2013-03-03 19:45:00,
2013-03-03 14:50:00,31.9,15.4,29.91,North,0,7.0,8.0,50,0.00,,CLR,0.00,116.00,VWS V14.01,2013-03-03 19:50:00,
2013-03-03 14:55:00,31.7,14.7,29.91,NE,51,7.0,13.0,49,0.00,,CLR,0.00,123.00,VWS V14.01,2013-03-03 19:55:00,
2013-03-03 15:00:00,31.7,14.3,29.91,NNE,14,6.0,14.0,48,0.00,,CLR,0.00,125.00,VWS V14.01,2013-03-03 20:00:00,
2013-03-03 15:05:00,31.8,14.8,29.91,North,356,5.0,14.0,49,0.00,,CLR,0.00,143.00,VWS V14.01,2013-03-03 20:05:00,
2013-03-03 15:10:00,32.1,15.6,29.91,North,3,6.0,8.0,50,0.00,,CLR,0.00,111.00,VWS V14.01,2013-03-03 20:10:00,
2013-03-03 15:15:00,31.9,15.8,29.91,NW,318,11.0,11.0,51,0.00,,CLR,0.00,114.00,VWS V14.01,2013-03-03 20:15:00,
2013-03-03 15:20:00,31.8,15.8,29.91,North,0,6.0,17.0,51,0.00,,CLR,0.00,128.00,VWS V14.01,2013-03-03 20:20:00,
2013-03-03 15:25:00,31.7,16.1,29.91,North,0,5.0,5.0,52,0.00,,CLR,0.00,160.00,VWS V14.01,2013-03-03 20:25:00,
2013-03-03 15:30:00,31.7,16.5,29.91,North,0,2.0,11.0,53,0.00,,CLR,0.00,148.00,VWS V14.01,2013-03-03 20:30:00,
2013-03-03 15:36:00,31.5,15.5,29.92,NNE,16,5.0,5.0,51,0.00,,CLR,0.00,143.00,VWS V14.01,2013-03-03 20:36:00,
2013-03-03 15:41:00,31.5,16.4,29.92,North,3,7.0,11.0,53,0.00,,CLR,0.00,125.00,VWS V14.01,2013-03-03 20:41:00,
2013-03-03 15:46:00,31.4,15.4,29.92,NNE,17,2.0,6.0,51,0.00,,CLR,0.00,114.00,VWS V14.01,2013-03-03 20:46:00,
2013-03-03 15:51:00,31.2,15.6,29.92,North,11,4.0,9.0,52,0.00,,CLR,0.00,139.00,VWS V14.01,2013-03-03 20:51:00,
2013-03-03 15:56:00,31.2,14.7,29.92,NNW,330,7.0,8.0,50,0.00,,CLR,0.00,128.00,VWS V14.01,2013-03-03 20:56:00,
2013-03-03 16:01:00,31.4,15.4,29.92,North,357,12.0,16.0,51,0.00,,CLR,0.00,139.00,VWS V14.01,2013-03-03 21:01:00,
2013-03-03 16:06:00,31.4,15.8,29.92,NE,49,7.0,7.0,52,0.00,,CLR,0.00,150.00,VWS V14.01,2013-03-03 21:06:00,
2013-03-03 16:11:00,31.4,15.4,29.92,NE,37,7.0,12.0,51,0.00,,CLR,0.00,104.00,VWS V14.01,2013-03-03 21:11:00,
2013-03-03 16:17:00,31.2,15.2,29.92,North,0,3.0,7.0,51,0.00,,CLR,0.00,81.00,VWS V14.01,2013-03-03 21:17:00,
2013-03-03 16:22:00,31.4,16.3,29.92,NNE,23,6.0,7.0,53,0.00,,CLR,0.00,125.00,VWS V14.01,2013-03-03 21:22:00,
2013-03-03 16:27:00,31.4,16.3,29.92,NE,38,7.0,8.0,53,0.00,,CLR,0.00,99.00,VWS V14.01,2013-03-03 21:27:00,
2013-03-03 16:32:00,31.2,15.6,29.92,North,0,3.0,10.0,52,0.00,,CLR,0.00,97.00,VWS V14.01,2013-03-03 21:32:00,
2013-03-03 16:37:00,31.4,15.8,29.92,North,8,8.0,8.0,52,0.00,,CLR,0.00,151.00,VWS V14.01,2013-03-03 21:37:00,
2013-03-03 16:42:00,31.5,16.4,29.92,North,8,2.0,8.0,53,0.00,,CLR,0.00,99.00,VWS V14.01,2013-03-03 21:42:00,
2013-03-03 16:47:00,31.4,15.4,29.92,North,359,6.0,7.0,51,0.00,,CLR,0.00,120.00,VWS V14.01,2013-03-03 21:47:00,
2013-03-03 16:52:00,31.5,15.9,29.92,North,352,6.0,7.0,52,0.00,,CLR,0.00,121.00,VWS V14.01,2013-03-03 21:52:00,
2013-03-03 16:58:00,31.2,14.7,29.92,North,3,14.0,14.0,50,0.00,,CLR,0.00,76.00,VWS V14.01,2013-03-03 21:58:00,
2013-03-03 17:03:00,31.1,15.1,29.92,NNE,23,7.0,14.0,51,0.00,,CLR,0.00,81.00,VWS V14.01,2013-03-03 22:03:00,
2013-03-03 17:08:00,30.9,14.5,29.92,North,359,3.0,13.0,50,0.00,,CLR,0.00,81.00,VWS V14.01,2013-03-03 22:08:00,
2013-03-03 17:13:00,31.1,15.1,29.92,North,11,6.0,13.0,51,0.00,,CLR,0.00,90.00,VWS V14.01,2013-03-03 22:13:00,
2013-03-03 17:18:00,31.2,15.2,29.92,North,3,5.0,12.0,51,0.00,,CLR,0.00,90.00,VWS V14.01,2013-03-03 22:18:00,
2013-03-03 17:23:00,31.5,15.5,29.93,NE,42,5.0,12.0,51,0.00,,CLR,0.00,167.00,VWS V14.01,2013-03-03 22:23:00,
2013-03-03 17:28:00,31.5,15.9,29.93,NE,37,7.0,8.0,52,0.00,,CLR,0.00,84.00,VWS V14.01,2013-03-03 22:28:00,
2013-03-03 17:34:00,31.5,15.9,29.93,North,11,5.0,10.0,52,0.00,,CLR,0.00,81.00,VWS V14.01,2013-03-03 22:34:00,
2013-03-03 17:39:00,31.2,15.6,29.93,North,3,5.0,5.0,52,0.00,,CLR,0.00,81.00,VWS V14.01,2013-03-03 22:39:00,
2013-03-03 17:44:00,30.9,15.4,29.93,NNE,32,6.0,7.0,52,0.00,,CLR,0.00,81.00,VWS V14.01,2013-03-03 22:44:00,
2013-03-03 17:49:00,30.9,15.4,29.93,North,1,3.0,9.0,52,0.00,,CLR,0.00,81.00,VWS V14.01,2013-03-03 22:49:00,
2013-03-03 17:54:00,30.5,15.0,29.94,North,0,5.0,12.0,52,0.00,,CLR,0.00,81.00,VWS V14.01,2013-03-03 22:54:00,
2013-03-03 17:59:00,30.3,14.8,29.94,North,0,4.0,7.0,52,0.00,,CLR,0.00,11.00,VWS V14.01,2013-03-03 22:59:00,
2013-03-03 18:04:00,30.2,14.7,29.94,NNE,13,6.0,11.0,52,0.00,,CLR,0.00,9.00,VWS V14.01,2013-03-03 23:04:00,
2013-03-03 18:10:00,30.0,14.1,29.94,North,6,5.0,11.0,51,0.00,,CLR,0.00,7.00,VWS V14.01,2013-03-03 23:10:00,
2013-03-03 18:15:00,29.7,13.8,29.94,NNE,14,7.0,11.0,51,0.00,,CLR,0.00,5.00,VWS V14.01,2013-03-03 23:15:00,
2013-03-03 18:20:00,29.6,14.1,29.95,North,3,3.0,8.0,52,0.00,,CLR,0.00,0.00,VWS V14.01,2013-03-03 23:20:00,
2013-03-03 18:25:00,29.3,14.3,29.95,NNE,20,5.0,8.0,53,0.00,,CLR,0.00,0.00,VWS V14.01,2013-03-03 23:25:00,
2013-03-03 18:30:00,29.0,14.0,29.95,NNE,14,5.0,10.0,53,0.00,,CLR,0.00,0.00,VWS V14.01,2013-03-03 23:30:00,
2013-03-03 18:35:00,29.0,14.4,29.96,North,0,2.0,10.0,54,0.00,,CLR,0.00,0.00,VWS V14.01,2013-03-03 23:35:00,
2013-03-03 18:40:00,28.8,14.3,29.96,North,1,5.0,8.0,54,0.00,,CLR,0.00,0.00,VWS V14.01,2013-03-03 23:40:00,
2013-03-03 18:45:00,28.8,14.7,29.96,NNE,16,3.0,12.0,55,0.00,,CLR,0.00,0.00,VWS V14.01,2013-03-03 23:45:00,
2013-03-03 18:50:00,28.8,14.7,29.97,North,354,4.0,10.0,55,0.00,,CLR,0.00,0.00,VWS V14.01,2013-03-03 23:50:00,
2013-03-03 18:56:00,28.7,15.0,29.97,North,7,6.0,11.0,56,0.00,,CLR,0.00,0.00,VWS V14.01,2013-03-03 23:56:00,
2013-03-03 19:01:00,28.8,14.7,29.97,North,0,5.0,12.0,55,0.00,,CLR,0.00,0.00,VWS V14.01,2013-03-04 00:01:00,
2013-03-03 19:06:00,29.0,15.3,29.97,NNE,20,5.0,7.0,56,0.00,,CLR,0.00,0.00,VWS V14.01,2013-03-04 00:06:00,
2013-03-03 19:11:00,29.0,15.7,29.97,North,359,5.0,7.0,57,0.00,,CLR,0.00,0.00,VWS V14.01,2013-03-04 00:11:00,
2013-03-03 19:16:00,29.0,15.7,29.97,NNW,340,5.0,5.0,57,0.00,,CLR,0.00,0.00,VWS V14.01,2013-03-04 00:16:00,
2013-03-03 19:21:00,29.0,15.7,29.97,North,0,4.0,5.0,57,0.00,,CLR,0.00,0.00,VWS V14.01,2013-03-04 00:21:00,
2013-03-03 19:26:00,29.0,15.7,29.97,NNW,339,3.0,3.0,57,0.00,,CLR,0.00,0.00,VWS V14.01,2013-03-04 00:26:00,
2013-03-03 19:31:00,29.0,15.7,29.97,NNW,339,3.0,3.0,57,0.00,,CLR,0.00,0.00,VWS V14.01,2013-03-04 00:31:00,
2013-03-03 19:37:00,29.0,15.7,29.98,North,0,5.0,5.0,57,0.00,,CLR,0.00,0.00,VWS V14.01,2013-03-04 00:37:00,
2013-03-03 19:42:00,28.8,15.5,29.98,NNE,16,2.0,5.0,57,0.00,,CLR,0.00,0.00,VWS V14.01,2013-03-04 00:42:00,
2013-03-03 19:47:00,28.5,15.2,29.98,NNE,20,3.0,6.0,57,0.00,,CLR,0.00,0.00,VWS V14.01,2013-03-04 00:47:00,
2013-03-03 19:52:00,28.5,17.1,29.98,NNE,13,2.0,6.0,62,0.00,,CLR,0.00,0.00,VWS V14.01,2013-03-04 00:52:00,
2013-03-03 19:57:00,28.5,17.1,29.98,NNE,13,2.0,2.0,62,0.00,,CLR,0.00,0.00,VWS V14.01,2013-03-04 00:57:00,
2013-03-03 20:02:00,28.3,17.0,29.98,NE,47,1.0,3.0,62,0.00,,CLR,0.00,0.00,VWS V14.01,2013-03-04 01:02:00,
2013-03-03 20:08:00,28.3,17.0,29.98,NE,54,0.0,0.0,62,0.00,,CLR,0.00,0.00,VWS V14.01,2013-03-04 01:08:00,
2013-03-03 20:13:00,28.3,17.0,29.98,North,11,3.0,3.0,62,0.00,,CLR,0.00,0.00,VWS V14.01,2013-03-04 01:13:00,
2013-03-03 20:18:00,28.3,17.0,29.98,North,0,5.0,5.0,62,0.00,,CLR,0.00,0.00,VWS V14.01,2013-03-04 01:18:00,
2013-03-03 20:23:00,28.3,16.6,29.98,NNW,329,0.0,5.0,61,0.00,,CLR,0.00,0.00,VWS V14.01,2013-03-04 01:23:00,
2013-03-03 20:28:00,28.3,15.8,29.98,North,0,6.0,8.0,59,0.00,,CLR,0.00,0.00,VWS V14.01,2013-03-04 01:28:00,
2013-03-03 20:33:00,28.3,15.8,29.98,North,3,6.0,8.0,59,0.00,,CLR,0.00,0.00,VWS V14.01,2013-03-04 01:33:00,
2013-03-03 20:39:00,28.3,15.8,29.99,NNE,16,0.0,6.0,59,0.00,,CLR,0.00,0.00,VWS V14.01,2013-03-04 01:39:00,
2013-03-03 20:44:00,28.3,15.8,29.99,NW,319,6.0,8.0,59,0.00,,CLR,0.00,0.00,VWS V14.01,2013-03-04 01:44:00,
2013-03-03 20:49:00,28.4,15.9,29.99,NNW,329,3.0,3.0,59,0.00,,CLR,0.00,0.00,VWS V14.01,2013-03-04 01:49:00,
2013-03-03 20:54:00,28.4,15.5,29.99,North,359,6.0,18.0,58,0.00,,CLR,0.00,0.00,VWS V14.01,2013-03-04 01:54:00,
2013-03-03 20:59:00,28.4,15.5,29.99,North,0,3.0,14.0,58,0.00,,CLR,0.00,0.00,VWS V14.01,2013-03-04 01:59:00,
2013-03-03 21:04:00,28.3,15.4,30.00,NNE,24,7.0,14.0,58,0.00,,CLR,0.00,0.00,VWS V14.01,2013-03-04 02:04:00,
2013-03-03 21:09:00,28.1,14.4,30.00,NNW,335,1.0,7.0,56,0.00,,CLR,0.00,0.00,VWS V14.01,2013-03-04 02:09:00,
2013-03-03 21:15:00,27.8,14.2,30.00,North,357,6.0,14.0,56,0.00,,CLR,0.00,0.00,VWS V14.01,2013-03-04 02:15:00,
2013-03-03 21:20:00,27.7,14.5,30.00,North,356,6.0,10.0,57,0.00,,CLR,0.00,0.00,VWS V14.01,2013-03-04 02:20:00,
2013-03-03 21:25:00,27.7,14.1,30.00,North,4,6.0,10.0,56,0.00,,CLR,0.00,0.00,VWS V14.01,2013-03-04 02:25:00,
2013-03-03 21:30:00,27.5,13.9,30.00,North,0,2.0,6.0,56,0.00,,CLR,0.00,0.00,VWS V14.01,2013-03-04 02:30:00,
2013-03-03 21:35:00,27.4,13.8,30.00,NNE,17,3.0,6.0,56,0.00,,CLR,0.00,0.00,VWS V14.01,2013-03-04 02:35:00,
2013-03-03 21:40:00,27.4,14.2,30.00,North,3,3.0,7.0,57,0.00,,CLR,0.00,0.00,VWS V14.01,2013-03-04 02:40:00,
2013-03-03 21:45:00,27.4,14.2,30.00,North,10,3.0,3.0,57,0.00,,CLR,0.00,0.00,VWS V14.01,2013-03-04 02:45:00,
2013-03-03 21:51:00,27.2,14.4,30.00,North,8,3.0,6.0,58,0.00,,CLR,0.00,0.00,VWS V14.01,2013-03-04 02:51:00,
2013-03-03 21:56:00,27.2,14.4,30.00,NNW,342,3.0,6.0,58,0.00,,CLR,0.00,0.00,VWS V14.01,2013-03-04 02:56:00,
2013-03-03 22:01:00,27.2,14.0,30.00,North,356,13.0,14.0,57,0.00,,CLR,0.00,0.00,VWS V14.01,2013-03-04 03:01:00,
2013-03-03 22:06:00,27.2,13.6,30.00,North,359,6.0,9.0,56,0.00,,CLR,0.00,0.00,VWS V14.01,2013-03-04 03:06:00,
2013-03-03 22:11:00,27.2,13.6,30.00,North,0,5.0,9.0,56,0.00,,CLR,0.00,0.00,VWS V14.01,2013-03-04 03:11:00,
2013-03-03 22:16:00,27.1,13.9,30.00,NNW,332,4.0,6.0,57,0.00,,CLR,0.00,0.00,VWS V14.01,2013-03-04 03:16:00,
2013-03-03 22:21:00,27.1,13.9,30.00,NW,322,7.0,12.0,57,0.00,,CLR,0.00,0.00,VWS V14.01,2013-03-04 03:21:00,
2013-03-03 22:26:00,27.1,13.9,30.00,NNW,337,5.0,6.0,57,0.00,,CLR,0.00,0.00,VWS V14.01,2013-03-04 03:26:00,
2013-03-03 22:32:00,27.1,13.9,30.00,North,0,3.0,8.0,57,0.00,,CLR,0.00,0.00,VWS V14.01,2013-03-04 03:32:00,
2013-03-03 22:37:00,26.9,14.1,30.01,NW,325,6.0,6.0,58,0.00,,CLR,0.00,0.00,VWS V14.01,2013-03-04 03:37:00,
2013-03-03 22:42:00,26.9,14.1,30.01,NNW,337,6.0,8.0,58,0.00,,CLR,0.00,0.00,VWS V14.01,2013-03-04 03:42:00,
2013-03-03 22:47:00,26.9,14.1,30.01,NW,312,4.0,7.0,58,0.00,,CLR,0.00,0.00,VWS V14.01,2013-03-04 03:47:00,
2013-03-03 22:52:00,26.9,14.5,30.01,NNE,31,3.0,10.0,59,0.00,,CLR,0.00,0.00,VWS V14.01,2013-03-04 03:52:00,
2013-03-03 22:54:00,26.3,13.6,30.01,North,0,8.0,11.0,58,0.00,,CLR,0.00,0.00,VWS V14.01,2013-03-04 03:54:00,
2013-03-03 22:55:00,26.3,13.6,30.01,NW,313,11.0,11.0,58,0.00,,CLR,0.00,0.00,VWS V14.01,2013-03-04 03:55:00,
2013-03-03 22:56:00,26.3,13.6,30.01,NNW,346,13.0,16.0,58,0.00,,CLR,0.00,0.00,VWS V14.01,2013-03-04 03:56:00,
2013-03-03 22:57:00,26.9,14.1,30.01,North,352,2.0,8.0,58,0.00,,CLR,0.00,0.00,VWS V14.01,2013-03-04 03:57:00,
2013-03-03 22:58:00,26.5,12.9,30.01,North,353,10.0,16.0,56,0.00,,CLR,0.00,0.00,VWS V14.01,2013-03-04 03:58:00,
2013-03-03 22:59:00,26.5,12.9,30.02,North,0,7.0,16.0,56,0.00,,CLR,0.00,0.00,VWS V14.01,2013-03-04 03:59:00,
2013-03-03 23:00:00,26.5,12.5,30.02,NW,322,7.0,16.0,55,0.00,,CLR,0.00,0.00,VWS V14.01,2013-03-04 04:00:00,
2013-03-03 23:01:00,26.5,12.9,30.02,North,0,5.0,7.0,56,0.00,,CLR,0.00,0.00,VWS V14.01,2013-03-04 04:01:00,
2013-03-03 23:02:00,26.9,14.5,30.01,North,350,1.0,8.0,59,0.00,,CLR,0.00,0.00,VWS V14.01,2013-03-04 04:02:00,
2013-03-03 23:03:00,26.5,12.9,30.02,NNE,14,6.0,8.0,56,0.00,,CLR,0.00,0.00,VWS V14.01,2013-03-04 04:03:00,
2013-03-03 23:04:00,26.5,12.9,30.02,North,3,5.0,8.0,56,0.00,,CLR,0.00,0.00,VWS V14.01,2013-03-04 04:04:00,
2013-03-03 23:05:00,26.5,12.9,30.02,NNW,328,7.0,8.0,56,0.00,,CLR,0.00,0.00,VWS V14.01,2013-03-04 04:05:00,
2013-03-03 23:06:00,26.3,12.8,30.02,NNW,340,6.0,11.0,56,0.00,,CLR,0.00,0.00,VWS V14.01,2013-03-04 04:06:00,
2013-03-03 23:07:00,26.8,14.8,30.01,North,0,6.0,6.0,60,0.00,,CLR,0.00,0.00,VWS V14.01,2013-03-04 04:07:00,
2013-03-03 23:08:00,26.3,12.8,30.02,NW,306,4.0,11.0,56,0.00,,CLR,0.00,0.00,VWS V14.01,2013-03-04 04:08:00,
2013-03-03 23:09:00,26.3,12.8,30.02,NW,322,7.0,11.0,56,0.00,,CLR,0.00,0.00,VWS V14.01,2013-03-04 04:09:00,
2013-03-03 23:10:00,26.3,12.3,30.02,NNW,339,7.0,11.0,55,0.00,,CLR,0.00,0.00,VWS V14.01,2013-03-04 04:10:00,
2013-03-03 23:11:00,26.3,12.3,30.02,North,357,3.0,8.0,55,0.00,,CLR,0.00,0.00,VWS V14.01,2013-03-04 04:11:00,
2013-03-03 23:12:00,26.8,14.8,30.01,North,0,2.0,7.0,60,0.00,,CLR,0.00,0.00,VWS V14.01,2013-03-04 04:12:00,
2013-03-03 23:13:00,26.3,12.3,30.02,North,0,6.0,8.0,55,0.00,,CLR,0.00,0.00,VWS V14.01,2013-03-04 04:13:00,
2013-03-03 23:16:00,26.3,12.3,30.02,North,0,3.0,12.0,55,0.00,,CLR,0.00,0.00,VWS V14.01,2013-03-04 04:16:00,
2013-03-03 23:17:00,26.3,12.3,30.02,NNW,339,8.0,13.0,55,0.00,,CLR,0.00,0.00,VWS V14.01,2013-03-04 04:17:00,
2013-03-03 23:18:00,26.6,14.6,30.01,NNW,339,5.0,7.0,60,0.00,,CLR,0.00,0.00,VWS V14.01,2013-03-04 04:18:00,
2013-03-03 23:20:00,26.2,12.2,30.02,North,356,4.0,4.0,55,0.00,,CLR,0.00,0.00,VWS V14.01,2013-03-04 04:20:00,
2013-03-03 23:22:00,26.2,12.2,30.02,North,359,7.0,12.0,55,0.00,,CLR,0.00,0.00,VWS V14.01,2013-03-04 04:22:00,
2013-03-03 23:23:00,26.6,14.2,30.01,North,0,5.0,10.0,59,0.00,,CLR,0.00,0.00,VWS V14.01,2013-03-04 04:23:00,
2013-03-03 23:28:00,26.6,14.6,30.01,North,0,2.0,6.0,60,0.00,,CLR,0.00,0.00,VWS V14.01,2013-03-04 04:28:00,
2013-03-03 23:33:00,26.6,15.0,30.01,North,349,2.0,6.0,61,0.00,,CLR,0.00,0.00,VWS V14.01,2013-03-04 04:33:00,
2013-03-03 23:38:00,26.6,15.0,30.01,North,3,6.0,12.0,61,0.00,,CLR,0.00,0.00,VWS V14.01,2013-03-04 04:38:00,
2013-03-03 23:43:00,26.5,14.1,30.01,North,0,11.0,12.0,59,0.00,,CLR,0.00,0.00,VWS V14.01,2013-03-04 04:43:00,
2013-03-03 23:48:00,26.5,14.1,30.01,North,359,6.0,12.0,59,0.00,,CLR,0.00,0.00,VWS V14.01,2013-03-04 04:48:00,
2013-03-03 23:53:00,26.3,13.9,30.01,North,6,7.0,12.0,59,0.00,,CLR,0.00,0.00,VWS V14.01,2013-03-04 04:53:00,
2013-03-03 23:59:00,26.3,13.6,30.01,NW,322,11.0,11.0,58,0.00,,CLR,0.00,0.00,VWS V14.01,2013-03-04 04:59:00,